User: anonymous   Login
Location: Unspecified
(0.0000°N, 0.0000°E)
Time: 02:08:25
(UTC+02:00)
Language:

Cosmos 1295 Rocket - Orbit

View from above orbital plane
View from above orbital plane
View from above satellite
View from above satellite

Ground track
Ground track

The orbit data is extracted from the following two-line orbital elements,

1 12682U 81077B   16209.73398153 -.00000002  00000-0 -16944-4 0  9991
2 12682  82.9156 258.7940 0034300 171.7560 328.4879 13.78528290758167
Epoch (UTC): 27 July 2016 17:36:56
Eccentricity: 0.0034300
inclination: 82.9156°
perigee height: 944 km
apogee height: 994 km
right ascension of ascending node: 258.7940°
argument of perigee: 171.7560°
revolutions per day: 13.78528290
mean anomaly at epoch: 328.4879°
orbit number at epoch: 75816

The dashed part of the orbit path shows where the satellite is in the earth's shadow,  

DLR